GW4629 Weather Reports


Display with metric or nautical units.
time (UTC)temp
F
wind
direction
speed
MPH
gust
MPH
rain 1hr
in
rain 24hr
in
rain mn
in
humidity
%
barometer
mb
20260503034058 53 170 1.0 2.0 0.00 0.00 0.00 99 1022.3
20260503033554 54 97 2.0 2.0 0.00 0.00 0.00 99 1022.3
20260503033053 54 97 2.0 2.0 0.00 0.00 0.00 99 1022.3
20260503032551 54 71 1.0 1.0 0.00 0.00 0.00 99 1022.3
20260503032048 54 71 1.0 1.0 0.00 0.00 0.00 99 1022.3
20260503031546 54 320 2.0 3.0 0.00 0.00 0.00 99 1022.2
20260503031043 54 320 2.0 3.0 0.00 0.00 0.00 99 1022.2
20260503030538 53 113 0.0 0.0 0.00 0.00 0.00 99 1022.1
20260503030036 53 113 0.0 0.0 0.00 0.00 0.00 99 1022.1
20260503025533 54 343 2.0 2.0 0.00 0.00 0.00 99 1022.1
20260503025031 54 343 2.0 2.0 0.00 0.00 0.00 99 1022.1
20260503024526 54 9 4.0 6.0 0.00 0.00 0.00 99 1021.9
20260503024024 54 9 4.0 6.0 0.00 0.00 0.00 99 1021.9
20260503023520 55 1 6.0 9.0 0.00 0.00 0.00 99 1022.1
20260503023018 55 1 6.0 9.0 0.00 0.00 0.00 99 1022.1
20260503022514 54 144 2.0 2.0 0.00 0.00 0.00 99 1021.8
20260503022009 54 144 2.0 2.0 0.00 0.00 0.00 99 1021.8
20260503021506 55 0 4.0 6.0 0.00 0.00 0.00 99 1021.8
20260503021003 55 0 4.0 6.0 0.00 0.00 0.00 99 1021.8
20260503020500 55 306 7.0 9.0 0.00 0.00 0.00 99 1021.9
20260503015956 55 306 7.0 9.0 0.00 0.00 0.00 99 1021.9
20260503015453 55 312 4.0 7.0 0.00 0.00 0.00 99 1021.7
20260503014950 55 312 4.0 7.0 0.00 0.00 0.00 99 1021.7
20260503014446 56 3 2.0 3.0 0.00 0.00 0.00 99 1021.8
20260503013945 56 3 2.0 3.0 0.00 0.00 0.00 99 1021.8
20260503013441 57 338 8.0 9.0 0.00 0.00 0.00 99 1021.4
20260503012938 57 338 8.0 9.0 0.00 0.00 0.00 99 1021.4
20260503012437 57 319 8.0 9.0 0.00 0.00 0.00 99 1021.6
20260503011932 57 319 8.0 9.0 0.00 0.00 0.00 99 1021.6
20260503011429 57 317 2.0 3.0 0.00 0.00 0.00 99 1021.6
20260503010927 57 317 2.0 3.0 0.00 0.00 0.00 99 1021.6
20260503010423 57 304 10.0 11.0 0.00 0.00 0.00 99 1021.4
20260503005920 57 304 10.0 11.0 0.00 0.00 0.00 99 1021.4
20260503005418 57 122 5.0 7.0 0.00 0.00 0.00 99 1021.6
20260503004914 57 122 5.0 7.0 0.00 0.00 0.00 99 1021.6
20260503004411 57 343 7.0 8.0 0.00 0.00 0.00 99 1021.8
20260503003909 57 343 7.0 8.0 0.00 0.00 0.00 99 1021.8
20260503003405 58 65 7.0 9.0 0.00 0.00 0.00 99 1021.8
20260503002902 58 65 7.0 9.0 0.00 0.00 0.00 99 1021.8
20260503002400 59 271 5.0 8.0 0.00 0.00 0.00 99 1021.6
20260503001856 59 271 5.0 8.0 0.00 0.00 0.00 99 1021.6
20260503001352 59 347 9.0 11.0 0.00 0.00 0.00 99 1021.6
20260503000850 59 347 9.0 11.0 0.00 0.00 0.00 99 1021.6
20260503000347 59 345 4.0 4.0 0.00 0.00 0.00 99 1021.8
20260502235844 59 345 4.0 4.0 0.00 0.00 0.00 99 1021.8
20260502235341 59 340 7.0 8.0 0.00 0.00 0.00 99 1021.7
20260502234838 59 340 7.0 8.0 0.00 0.00 0.00 99 1021.7
20260502234335 60 270 6.0 8.0 0.00 0.00 0.00 99 1021.7
20260502233832 60 270 6.0 8.0 0.00 0.00 0.00 99 1021.7
20260502233328 60 323 8.0 9.0 0.00 0.00 0.00 99 1021.6
20260502232825 60 323 8.0 9.0 0.00 0.00 0.00 99 1021.6
20260502232321 61 334 10.0 11.0 0.00 0.00 0.00 99 1021.9
20260502231818 61 334 10.0 11.0 0.00 0.00 0.00 99 1021.9
20260502231316 60 35 11.0 13.0 0.00 0.00 0.00 99 1021.7
20260502230814 60 35 11.0 13.0 0.00 0.00 0.00 99 1021.7
20260502230311 61 337 9.0 11.0 0.00 0.00 0.00 99 1021.6
20260502225808 61 337 9.0 11.0 0.00 0.00 0.00 99 1021.6
20260502225305 60 270 2.0 2.0 0.00 0.00 0.00 99 1021.9
20260502224801 60 270 2.0 2.0 0.00 0.00 0.00 99 1021.9
20260502224258 61 298 6.0 10.0 0.00 0.00 0.00 99 1022.1
20260502223755 61 298 6.0 10.0 0.00 0.00 0.00 99 1022.1
20260502223254 60 274 8.0 10.0 0.00 0.00 0.00 99 1022.1
20260502222751 60 274 8.0 10.0 0.00 0.00 0.00 99 1022.1
20260502222247 61 268 10.0 11.0 0.00 0.00 0.00 99 1022.1
20260502221743 61 13 5.0 7.0 0.00 0.00 0.00 99 1022.1
20260502221240 61 13 5.0 7.0 0.00 0.00 0.00 99 1022.1
20260502220736 61 2 9.0 13.0 0.00 0.00 0.00 99 1022.2
20260502220227 61 2 9.0 13.0 0.00 0.00 0.00 99 1022.2
20260502215724 61 321 11.0 14.0 0.00 0.00 0.00 99 1022.4
20260502215221 61 321 11.0 14.0 0.00 0.00 0.00 99 1022.4
20260502214718 61 289 10.0 11.0 0.00 0.00 0.00 99 1022.6
20260502214215 61 289 10.0 11.0 0.00 0.00 0.00 99 1022.6
20260502213712 60 295 8.0 9.0 0.00 0.00 0.00 99 1022.7
20260502213210 60 295 8.0 9.0 0.00 0.00 0.00 99 1022.7
20260502212708 60 313 11.0 13.0 0.00 0.00 0.00 99 1022.8
20260502212206 60 313 11.0 13.0 0.00 0.00 0.00 99 1022.8
20260502211702 61 287 12.0 13.0 0.00 0.00 0.00 99 1022.8
20260502211159 61 287 12.0 13.0 0.00 0.00 0.00 99 1022.8
20260502210655 61 311 9.0 11.0 0.00 0.00 0.00 99 1022.8
20260502210153 61 311 9.0 11.0 0.00 0.00 0.00 99 1022.8
20260502205650 62 302 13.0 15.0 0.00 0.00 0.00 99 1022.9
20260502205146 62 302 13.0 15.0 0.00 0.00 0.00 99 1022.9
20260502204643 62 284 9.0 14.0 0.00 0.00 0.00 99 1022.8
20260502204141 62 284 9.0 14.0 0.00 0.00 0.00 99 1022.8
20260502203638 62 353 14.0 18.0 0.00 0.00 0.00 99 1023.1
20260502203136 62 353 14.0 18.0 0.00 0.00 0.00 99 1023.1
20260502202630 60 327 9.0 13.0 0.00 0.00 0.00 99 1023.3
20260502202129 60 327 9.0 13.0 0.00 0.00 0.00 99 1023.3
20260502201625 61 276 9.0 10.0 0.00 0.00 0.00 99 1023.4
20260502201122 61 276 9.0 10.0 0.00 0.00 0.00 99 1023.4
20260502200617 61 274 6.0 8.0 0.00 0.00 0.00 99 1023.3
20260502200115 61 274 6.0 8.0 0.00 0.00 0.00 99 1023.3
20260502195614 61 319 9.0 11.0 0.00 0.00 0.00 99 1023.3
20260502195109 61 319 9.0 11.0 0.00 0.00 0.00 99 1023.3
20260502194606 59 347 7.0 8.0 0.00 0.00 0.00 99 1023.6
20260502194102 59 347 7.0 8.0 0.00 0.00 0.00 99 1023.6
20260502193559 59 310 8.0 9.0 0.00 0.00 0.00 99 1023.4
20260502193055 59 310 8.0 9.0 0.00 0.00 0.00 99 1023.4
20260502192551 58 6 7.0 10.0 0.00 0.00 0.00 99 1023.7
20260502192049 58 6 7.0 10.0 0.00 0.00 0.00 99 1023.7
20260502191546 60 327 10.0 11.0 0.00 0.00 0.00 99 1023.8
20260502191044 60 327 10.0 11.0 0.00 0.00 0.00 99 1023.8
20260502190541 59 352 11.0 13.0 0.00 0.00 0.00 99 1023.7
20260502190038 59 352 11.0 13.0 0.00 0.00 0.00 99 1023.7
20260502185532 58 319 6.0 8.0 0.00 0.00 0.00 99 1024.2
20260502185030 58 319 6.0 8.0 0.00 0.00 0.00 99 1024.2
20260502184525 59 342 8.0 10.0 0.00 0.00 0.00 99 1024.2
20260502184022 59 342 8.0 10.0 0.00 0.00 0.00 99 1024.2
20260502183518 58 7 4.0 6.0 0.00 0.00 0.00 99 1024.2
20260502183014 58 7 4.0 6.0 0.00 0.00 0.00 99 1024.2
20260502182509 58 21 5.0 6.0 0.00 0.00 0.00 99 1024.2
20260502182005 58 21 5.0 6.0 0.00 0.00 0.00 99 1024.2
20260502181503 57 334 8.0 9.0 0.00 0.00 0.00 99 1024.3
20260502181002 57 334 8.0 9.0 0.00 0.00 0.00 99 1024.3
20260502180459 58 4 9.0 10.0 0.00 0.00 0.00 99 1024.5
20260502170413 58 252 1.0 1.0 0.00 0.00 0.00 99 1025.0
20260502163855 56 332 4.0 6.0 0.00 0.00 0.00 99 1024.8
20260502163352 54 252 1.0 2.0 0.00 0.00 0.00 99 1024.8
20260502162849 54 252 1.0 2.0 0.00 0.00 0.00 99 1024.8
20260502162340 54 355 4.0 6.0 0.00 0.00 0.00 99 1024.7
20260502161838 54 355 4.0 6.0 0.00 0.00 0.00 99 1024.7
20260502161333 54 299 1.0 2.0 0.00 0.00 0.00 99 1025.1
20260502160832 54 299 1.0 2.0 0.00 0.00 0.00 99 1025.1
20260502160330 53 285 1.0 1.0 0.00 0.00 0.00 99 1025.0
20260502152305 50 58 3.0 3.0 0.00 0.00 0.00 99 1025.2
20260502151802 50 58 3.0 3.0 0.00 0.00 0.00 99 1025.2
20260502151259 49 325 1.0 3.0 0.00 0.00 0.00 99 1025.2
20260502150757 49 325 1.0 3.0 0.00 0.00 0.00 99 1025.2
20260502150253 48 71 1.0 2.0 0.00 0.00 0.00 99 1025.3
20260502130642 36 165 13.0 16.0 0.00 0.00 0.00 99 1024.8
20260502130139 36 165 13.0 16.0 0.00 0.00 0.00 99 1024.8
20260502123625 35 140 11.0 14.0 0.00 0.00 0.00 99 1024.7
20260502123121 35 140 11.0 14.0 0.00 0.00 0.00 99 1024.7
20260502122618 35 121 10.0 11.0 0.00 0.00 0.00 99 1024.7
20260502122115 35 121 10.0 11.0 0.00 0.00 0.00 99 1024.7
20260502121613 35 143 13.0 15.0 0.00 0.00 0.00 99 1024.7
20260502121110 35 143 13.0 15.0 0.00 0.00 0.00 99 1024.7
20260502120606 35 140 9.0 10.0 0.00 0.00 0.00 99 1024.6
20260502115601 35 152 10.0 13.0 0.00 0.00 0.00 99 1025.0
20260502115056 35 152 10.0 13.0 0.00 0.00 0.00 99 1025.0
20260502114553 35 155 11.0 11.0 0.00 0.00 0.00 99 1024.7
20260502114050 35 155 11.0 11.0 0.00 0.00 0.00 99 1024.7
20260502113548 35 160 11.0 13.0 0.00 0.00 0.00 99 1024.7
20260502113046 35 160 11.0 13.0 0.00 0.00 0.00 99 1024.7
20260502112544 35 153 10.0 13.0 0.00 0.00 0.00 99 1024.6
20260502112041 35 153 10.0 13.0 0.00 0.00 0.00 99 1024.6
20260502111538 35 150 11.0 11.0 0.00 0.00 0.00 99 1024.7
20260502111035 35 150 11.0 11.0 0.00 0.00 0.00 99 1024.7
20260502110533 35 153 9.0 11.0 0.00 0.00 0.00 99 1025.0
20260502110031 35 153 9.0 11.0 0.00 0.00 0.00 99 1025.0
20260502105527 35 159 11.0 13.0 0.00 0.00 0.00 99 1024.7
20260502105025 35 159 11.0 13.0 0.00 0.00 0.00 99 1024.7
20260502104522 35 140 11.0 11.0 0.00 0.00 0.00 99 1024.7
20260502104020 35 140 11.0 11.0 0.00 0.00 0.00 99 1024.7
20260502103517 35 122 11.0 11.0 0.00 0.00 0.00 99 1024.8
20260502103015 35 122 11.0 11.0 0.00 0.00 0.00 99 1024.8
20260502102511 35 123 11.0 14.0 0.00 0.00 0.00 99 1024.8
20260502102008 35 123 11.0 14.0 0.00 0.00 0.00 99 1024.8
20260502101506 35 130 12.0 14.0 0.00 0.00 0.00 99 1024.6
20260502101004 35 130 12.0 14.0 0.00 0.00 0.00 99 1024.6
20260502100503 35 156 9.0 10.0 0.00 0.00 0.00 99 1024.6
20260502091437 36 152 11.0 13.0 0.00 0.00 0.00 99 1024.7
20260502090934 36 152 11.0 13.0 0.00 0.00 0.00 99 1024.7
20260502090431 36 99 9.0 10.0 0.00 0.00 0.00 99 1024.5
20260502071326 37 97 9.0 9.0 0.00 0.00 0.00 99 1025.2
20260502070824 37 97 9.0 9.0 0.00 0.00 0.00 99 1025.2
20260502070321 38 159 7.0 8.0 0.00 0.00 0.00 99 1025.3
20260502065820 38 159 7.0 8.0 0.00 0.00 0.00 99 1025.3
20260502065318 38 142 9.0 10.0 0.00 0.00 0.00 99 1025.3
20260502064815 38 142 9.0 10.0 0.00 0.00 0.00 99 1025.3
20260502064313 38 151 9.0 10.0 0.00 0.00 0.00 99 1025.3
20260502063810 38 151 9.0 10.0 0.00 0.00 0.00 99 1025.3
20260502063308 38 134 8.0 8.0 0.00 0.00 0.00 99 1025.3
20260502062805 38 134 8.0 8.0 0.00 0.00 0.00 99 1025.3
20260502062305 39 109 9.0 10.0 0.00 0.00 0.00 99 1025.2
20260502061801 39 109 9.0 10.0 0.00 0.00 0.00 99 1025.2
20260502061259 39 163 6.0 7.0 0.00 0.00 0.00 99 1025.2
20260502060759 39 163 6.0 7.0 0.00 0.00 0.00 99 1025.2
20260502060254 39 142 7.0 8.0 0.00 0.00 0.00 99 1025.3
20260502055753 39 142 7.0 8.0 0.00 0.00 0.00 99 1025.3
20260502055250 39 156 6.0 7.0 0.00 0.00 0.00 99 1025.2
20260502054749 39 156 6.0 7.0 0.00 0.00 0.00 99 1025.2
20260502054246 39 132 5.0 6.0 0.00 0.00 0.00 99 1025.3
20260502053744 39 132 5.0 6.0 0.00 0.00 0.00 99 1025.3
20260502053241 39 146 5.0 7.0 0.00 0.00 0.00 99 1025.2
20260502052739 39 146 5.0 7.0 0.00 0.00 0.00 99 1025.2
20260502052237 39 135 6.0 8.0 0.00 0.00 0.00 99 1025.2
20260502051734 39 135 6.0 8.0 0.00 0.00 0.00 99 1025.2
20260502051232 40 158 8.0 9.0 0.00 0.00 0.00 99 1025.3
20260502050728 40 158 8.0 9.0 0.00 0.00 0.00 99 1025.3
20260502050225 40 130 7.0 8.0 0.00 0.00 0.00 99 1025.2
20260502045722 40 130 7.0 8.0 0.00 0.00 0.00 99 1025.2
20260502045219 41 163 6.0 7.0 0.00 0.00 0.00 99 1025.0
20260502044715 41 163 6.0 7.0 0.00 0.00 0.00 99 1025.0
20260502044212 41 155 6.0 7.0 0.00 0.00 0.00 99 1025.3
20260502043709 41 155 6.0 7.0 0.00 0.00 0.00 99 1025.3
20260502043207 42 122 6.0 6.0 0.00 0.00 0.00 99 1025.2
20260502042706 42 122 6.0 6.0 0.00 0.00 0.00 99 1025.2
20260502042204 42 102 4.0 4.0 0.00 0.00 0.00 99 1025.1
20260502041701 42 102 4.0 4.0 0.00 0.00 0.00 99 1025.1
20260502041158 42 168 4.0 4.0 0.00 0.00 0.00 99 1025.1
20260502040655 42 168 4.0 4.0 0.00 0.00 0.00 99 1025.1
20260502040152 43 167 5.0 6.0 0.00 0.00 0.00 99 1025.0
20260502035648 43 167 5.0 6.0 0.00 0.00 0.00 99 1025.0
20260502035145 44 117 1.0 1.0 0.00 0.00 0.00 99 1025.0
20260502034643 44 117 1.0 1.0 0.00 0.00 0.00 99 1025.0